TimeMDT,TemperatureF,Dew PointF,Humidity,Sea Level PressureIn,VisibilityMPH,Wind Direction,Wind SpeedMPH,Gust SpeedMPH,PrecipitationIn,Events,Conditions,WindDirDegrees,DateUTC
12:53 AM,45.0,39.9,82,30.02,10.0,West,6.9,-,N/A,,Overcast,260,2013-09-27 06:53:00
1:53 AM,45.0,39.9,82,29.98,10.0,WNW,8.1,-,N/A,,Scattered Clouds,290,2013-09-27 07:53:00
2:53 AM,45.0,39.9,82,29.96,10.0,WNW,6.9,-,N/A,,Overcast,290,2013-09-27 08:53:00
3:53 AM,44.1,39.9,85,29.96,10.0,West,8.1,-,N/A,,Partly Cloudy,280,2013-09-27 09:53:00
4:53 AM,44.1,39.9,85,29.97,10.0,WNW,6.9,-,N/A,,Overcast,300,2013-09-27 10:53:00
5:53 AM,43.0,39.0,86,29.96,10.0,WNW,8.1,-,N/A,,Clear,290,2013-09-27 11:53:00
6:53 AM,43.0,39.9,89,29.96,10.0,West,5.8,-,N/A,,Overcast,280,2013-09-27 12:53:00
7:53 AM,44.1,39.9,85,29.97,10.0,West,4.6,-,N/A,,Overcast,280,2013-09-27 13:53:00
8:53 AM,45.0,39.0,80,29.97,10.0,WNW,6.9,-,N/A,,Scattered Clouds,290,2013-09-27 14:53:00
9:53 AM,46.0,37.9,73,29.98,10.0,NW,3.5,-,N/A,,Overcast,310,2013-09-27 15:53:00
10:53 AM,48.9,37.0,64,29.97,10.0,WSW,5.8,-,N/A,,Overcast,250,2013-09-27 16:53:00
11:53 AM,50.0,37.9,63,29.96,10.0,WSW,6.9,-,N/A,,Overcast,250,2013-09-27 17:53:00
12:53 PM,50.0,37.0,61,29.95,10.0,SW,5.8,-,N/A,,Overcast,230,2013-09-27 18:53:00
1:53 PM,51.1,36.0,56,29.93,10.0,WSW,6.9,-,N/A,,Overcast,240,2013-09-27 19:53:00
2:53 PM,52.0,34.0,50,29.92,10.0,West,6.9,-,N/A,,Overcast,270,2013-09-27 20:53:00
3:53 PM,52.0,34.0,50,29.91,10.0,West,6.9,-,N/A,,Mostly Cloudy,260,2013-09-27 21:53:00
4:53 PM,51.1,35.1,54,29.91,10.0,West,15.0,-,N/A,,Overcast,270,2013-09-27 22:53:00
5:53 PM,51.1,33.1,50,29.93,10.0,WSW,11.5,-,N/A,,Partly Cloudy,240,2013-09-27 23:53:00
6:53 PM,46.9,37.9,71,29.94,10.0,WSW,8.1,-,N/A,,Clear,240,2013-09-28 00:53:00
7:53 PM,43.0,37.0,80,29.95,10.0,SSW,9.2,-,N/A,,Clear,210,2013-09-28 01:53:00
8:53 PM,42.1,37.0,82,29.95,10.0,SSW,8.1,-,N/A,,Clear,210,2013-09-28 02:53:00
9:53 PM,41.0,36.0,82,29.94,10.0,SSW,5.8,-,N/A,,Clear,200,2013-09-28 03:53:00
10:53 PM,39.9,36.0,86,29.91,10.0,SSE,3.5,-,N/A,,Partly Cloudy,150,2013-09-28 04:53:00
11:53 PM,37.9,36.0,93,29.89,10.0,Calm,Calm,-,N/A,,Clear,0,2013-09-28 05:53:00